START_TIME,STEP,MOV.,M34,t_acc.,L5,t_acc.,L18,t_acc.,L14,t_acc.
1979-08-05 21:00:23.310 ,0,0,0.,12.0,0.,12.0,0.,12.0,0.,12.0
1979-08-05 21:00:35.310 ,0,0,0.,12.0,0.,12.0,0.,12.0,0.,12.0
1979-08-05 21:00:47.310 ,0,1,,0,,0,,0,,0
1979-08-05 21:00:59.310 ,0,1,0.,12.0,0.,12.0,0.,12.0,0.,12.0
1979-08-05 21:01:11.310 ,0,0,0.,12.0,0.,12.0,0.,12.0,0.,12.0
1979-08-05 21:01:23.310 ,0,0,0.,12.0,0.,12.0,0.,12.0,0.,12.0
1979-08-05 21:01:35.310 ,1,1,0.,12.0,0.,12.0,0.,12.0,0.,12.0
1979-08-05 21:01:47.310 ,1,1,0.,12.0,0.,12.0,0.,12.0,0.,12.0
1979-08-05 21:01:59.310 ,1,0,0.,12.0,0.,12.0,0.,12.0,0.,12.0
1979-08-05 21:02:11.310 ,1,0,0.,12.0,0.,12.0,0.,12.0,0.,12.0
1979-08-05 21:02:23.310 ,2,1,0.,12.0,0.,12.0,0.,12.0,0.,12.0
1979-08-05 21:02:35.310 ,2,1,0.,12.0,0.,12.0,0.,12.0,0.,12.0
1979-08-05 21:02:47.310 ,2,0,0.,12.0,0.,12.0,0.,12.0,0.,12.0
1979-08-05 21:02:59.310 ,2,0,0.,12.0,0.,12.0,0.,12.0,0.,12.0
1979-08-05 21:03:11.310 ,3,1,0.,12.0,0.,12.0,0.,12.0,0.,12.0
1979-08-05 21:03:23.310 ,3,1,0.,12.0,0.,12.0,0.,12.0,0.,12.0
1979-08-05 21:03:35.310 ,3,0,0.,12.0,0.,12.0,0.,12.0,0.,12.0
1979-08-05 21:03:47.310 ,3,0,0.,12.0,0.,12.0,0.,12.0,0.,12.0
1979-08-05 21:03:59.310 ,4,1,0.,12.0,0.,12.0,0.,12.0,0.,12.0
1979-08-05 21:04:11.310 ,4,1,0.,12.0,0.,12.0,0.,12.0,0.,12.0
1979-08-05 21:04:23.310 ,4,0,0.,12.0,0.,12.0,0.,12.0,0.,12.0
1979-08-05 21:04:35.310 ,4,0,0.,12.0,0.,12.0,0.,12.0,0.,12.0
1979-08-05 21:04:47.310 ,5,1,0.,12.0,0.,12.0,0.,12.0,0.,12.0
1979-08-05 21:04:59.310 ,5,1,0.,12.0,0.,12.0,0.,12.0,0.,12.0
1979-08-05 21:05:11.310 ,5,0,0.,12.0,0.,12.0,0.,12.0,0.,12.0
1979-08-05 21:05:23.310 ,5,0,0.,12.0,0.,12.0,0.,12.0,0.,12.0
1979-08-05 21:05:35.310 ,6,1,0.,12.0,0.,12.0,0.,12.0,0.,12.0
1979-08-05 21:05:47.310 ,6,1,0.,12.0,0.,12.0,0.,12.0,0.,12.0
1979-08-05 21:05:59.310 ,6,0,0.,12.0,0.,12.0,0.,12.0,0.,12.0
1979-08-05 21:06:11.310 ,6,0,0.,12.0,0.,12.0,0.,12.0,0.,12.0
1979-08-05 21:06:23.310 ,7,0,0.,12.0,0.,12.0,0.,12.0,1.,12.0
1979-08-05 21:06:35.310 ,7,0,0.,12.0,0.,12.0,0.,12.0,0.,12.0
1979-08-05 21:06:47.310 ,7,0,0.,12.0,0.,12.0,0.,12.0,0.,12.0
1979-08-05 21:06:59.310 ,7,0,0.,12.0,0.,12.0,0.,12.0,0.,12.0
1979-08-05 21:07:11.310 ,4,1,0.,12.0,0.,12.0,0.,12.0,0.,12.0
1979-08-05 21:07:23.310 ,4,1,0.,12.0,0.,12.0,0.,12.0,0.,12.0
1979-08-05 21:07:35.310 ,0,1,0.,12.0,0.,12.0,0.,12.0,0.,12.0
1979-08-05 21:07:47.310 ,0,1,0.,12.0,0.,12.0,0.,12.0,0.,12.0
1979-08-05 21:07:59.310 ,3,1,0.,12.0,0.,12.0,0.,12.0,0.,12.0
1979-08-05 21:08:11.310 ,3,1,0.,12.0,0.,12.0,0.,12.0,0.,12.0
1979-08-05 21:08:23.310 ,7,1,0.,12.0,0.,12.0,0.,12.0,0.,12.0
1979-08-05 21:08:35.310 ,7,1,0.,12.0,0.,12.0,0.,12.0,0.,12.0
1979-08-05 21:08:47.310 ,4,1,0.,12.0,0.,12.0,0.,12.0,0.,12.0
1979-08-05 21:08:59.310 ,4,1,0.,12.0,0.,12.0,0.,12.0,0.,12.0
1979-08-05 21:09:11.310 ,0,1,0.,12.0,0.,12.0,0.,12.0,0.,12.0
1979-08-05 21:09:23.310 ,0,1,0.,12.0,0.,12.0,0.,12.0,0.,12.0
1979-08-05 21:09:35.310 ,3,1,0.,12.0,0.,12.0,0.,12.0,0.,12.0
1979-08-05 21:09:47.310 ,3,1,0.,12.0,0.,12.0,0.,12.0,0.,12.0
1979-08-05 21:09:59.310 ,7,1,0.,12.0,0.,12.0,0.,12.0,0.,12.0
1979-08-05 21:10:11.310 ,7,1,0.,12.0,0.,12.0,0.,12.0,0.,12.0
1979-08-05 21:10:23.310 ,4,1,0.,12.0,0.,12.0,0.,12.0,0.,12.0
1979-08-05 21:10:35.310 ,4,1,0.,12.0,0.,12.0,0.,12.0,0.,12.0
1979-08-05 21:10:47.310 ,0,1,0.,12.0,0.,12.0,0.,12.0,0.,12.0
1979-08-05 21:10:59.310 ,0,1,0.,12.0,0.,12.0,0.,12.0,0.,12.0
1979-08-05 21:11:11.310 ,3,1,0.,12.0,0.,12.0,0.,12.0,0.,12.0
1979-08-05 21:11:23.310 ,3,1,0.,12.0,0.,12.0,0.,12.0,0.,12.0
1979-08-05 21:11:35.310 ,7,1,0.,12.0,0.,12.0,0.,12.0,0.,12.0
1979-08-05 21:11:47.310 ,7,1,0.,12.0,0.,12.0,0.,12.0,0.,12.0
1979-08-05 21:11:59.310 ,4,1,0.,12.0,0.,12.0,0.,12.0,0.,12.0
1979-08-05 21:12:11.310 ,4,1,0.,12.0,0.,12.0,0.,12.0,0.,12.0
1979-08-05 21:12:23.310 ,0,1,0.,12.0,0.,12.0,0.,12.0,0.,12.0
1979-08-05 21:12:35.310 ,0,1,0.,12.0,0.,12.0,0.,12.0,0.,12.0
1979-08-05 21:12:47.910 ,3,1,0.,12.0,0.,12.0,0.,12.0,0.,12.0
1979-08-05 21:12:59.910 ,3,1,0.,12.0,0.,12.0,0.,12.0,0.,12.0
1979-08-05 21:13:11.310 ,7,1,0.,12.0,0.,12.0,0.,12.0,0.,12.0
1979-08-05 21:13:23.310 ,7,1,0.,12.0,0.,12.0,0.,12.0,0.,12.0
1979-08-05 21:13:35.310 ,4,1,0.,12.0,0.,12.0,0.,12.0,0.,12.0
1979-08-05 21:13:47.310 ,4,1,0.,12.0,0.,12.0,0.,12.0,0.,12.0
1979-08-05 21:13:59.310 ,0,1,0.,12.0,0.,12.0,0.,12.0,0.,12.0
1979-08-05 21:14:11.310 ,0,1,0.,12.0,0.,12.0,0.,12.0,0.,12.0
1979-08-05 21:14:23.310 ,3,1,0.,12.0,0.,12.0,0.,12.0,0.,12.0
1979-08-05 21:14:35.310 ,3,1,0.,12.0,0.,12.0,0.,12.0,0.,12.0
1979-08-05 21:14:47.310 ,5,1,0.,12.0,0.,12.0,0.,12.0,0.,12.0
1979-08-05 21:14:59.310 ,5,1,,0,,0,,0,,0
1979-08-05 21:15:11.310 ,4,1,0.,12.0,0.,12.0,0.,12.0,0.,12.0
1979-08-05 21:15:23.310 ,4,1,0.,12.0,0.,12.0,0.,12.0,0.,12.0
1979-08-05 21:15:35.310 ,0,1,0.,12.0,0.,12.0,0.,12.0,0.,12.0
1979-08-05 21:15:47.310 ,0,1,0.,12.0,0.,12.0,0.,12.0,0.,12.0
1979-08-05 21:15:59.310 ,3,1,0.,12.0,0.,12.0,0.,12.0,0.,12.0
1979-08-05 21:16:11.310 ,3,1,0.,12.0,0.,12.0,0.,12.0,0.,12.0
1979-08-05 21:16:23.310 ,7,1,0.,12.0,0.,12.0,0.,12.0,0.,12.0
1979-08-05 21:16:35.310 ,7,1,0.,12.0,0.,12.0,0.,12.0,0.,12.0
1979-08-05 21:16:47.310 ,4,1,0.,12.0,0.,12.0,0.,12.0,0.,12.0
1979-08-05 21:16:59.310 ,4,1,0.,12.0,0.,12.0,0.,12.0,0.,12.0
1979-08-05 21:17:11.310 ,0,1,0.,12.0,0.,12.0,0.,12.0,0.,12.0
1979-08-05 21:17:23.310 ,0,1,0.,12.0,0.,12.0,0.,12.0,0.,12.0
1979-08-05 21:17:35.310 ,0,0,0.,12.0,0.,12.0,0.,12.0,0.,12.0
1979-08-05 21:17:47.310 ,0,0,0.,12.0,0.,12.0,0.,12.0,0.,12.0
1979-08-05 21:17:59.310 ,0,0,0.,12.0,0.,12.0,0.,12.0,0.,12.0
1979-08-05 21:18:11.310 ,0,0,0.,12.0,0.,12.0,0.,12.0,0.,12.0
1979-08-05 21:18:23.310 ,5,1,0.,12.0,0.,12.0,0.,12.0,0.,12.0
1979-08-05 21:18:35.310 ,5,1,0.,12.0,0.,12.0,0.,12.0,0.,12.0
1979-08-05 21:18:47.310 ,5,0,0.,12.0,0.,12.0,0.,12.0,0.,12.0
1979-08-05 21:18:59.310 ,5,0,0.,12.0,0.,12.0,0.,12.0,0.,12.0
1979-08-05 21:19:11.310 ,4,1,0.,12.0,0.,12.0,0.,12.0,0.,12.0
1979-08-05 21:19:23.310 ,4,1,0.,12.0,0.,12.0,0.,12.0,0.,12.0
1979-08-05 21:19:35.310 ,4,0,0.,12.0,0.,12.0,0.,12.0,0.,12.0
1979-08-05 21:19:47.310 ,4,0,0.,12.0,0.,12.0,0.,12.0,0.,12.0
1979-08-05 21:19:59.310 ,3,1,0.,12.0,0.,12.0,0.,12.0,0.,12.0
1979-08-05 21:20:11.310 ,3,1,0.,12.0,0.,12.0,0.,12.0,0.,12.0
1979-08-05 21:20:23.310 ,3,0,0.,12.0,0.,12.0,0.,12.0,0.,12.0
1979-08-05 21:20:35.310 ,3,0,0.,12.0,0.,12.0,0.,12.0,0.,12.0
1979-08-05 21:20:47.310 ,2,1,0.,12.0,0.,12.0,0.,12.0,0.,12.0
1979-08-05 21:20:59.310 ,2,1,0.,12.0,0.,12.0,0.,12.0,0.,12.0
1979-08-05 21:21:11.310 ,2,0,0.,12.0,0.,12.0,0.,12.0,0.,12.0
1979-08-05 21:21:23.310 ,2,0,0.,12.0,0.,12.0,0.,12.0,0.,12.0
1979-08-05 21:21:35.310 ,1,1,0.,12.0,0.,12.0,0.,12.0,0.,12.0
1979-08-05 21:21:47.310 ,1,1,0.,12.0,0.,12.0,0.,12.0,0.,12.0
1979-08-05 21:21:59.310 ,1,0,0.,12.0,0.,12.0,0.,12.0,0.,12.0
1979-08-05 21:22:11.310 ,1,0,0.,12.0,0.,12.0,0.,12.0,0.,12.0
1979-08-05 21:22:23.310 ,0,1,0.,12.0,0.,12.0,0.,12.0,0.,12.0
1979-08-05 21:22:35.310 ,0,1,0.,12.0,0.,12.0,0.,12.0,0.,12.0
1979-08-05 21:22:47.310 ,0,0,0.,12.0,0.,12.0,0.,12.0,0.,12.0
1979-08-05 21:22:59.310 ,0,0,0.,12.0,0.,12.0,0.,12.0,0.,12.0
1979-08-05 21:23:11.310 ,0,1,0.,12.0,0.,12.0,0.,12.0,0.,12.0
1979-08-05 21:23:23.310 ,0,1,0.,12.0,0.,12.0,0.,12.0,0.,12.0
1979-08-05 21:23:35.310 ,0,0,0.,12.0,0.,12.0,0.,12.0,0.,12.0
1979-08-05 21:23:47.310 ,0,0,0.,12.0,0.,12.0,0.,12.0,0.,12.0
1979-08-05 21:23:59.310 ,1,1,0.,12.0,0.,12.0,0.,12.0,0.,12.0
1979-08-05 21:24:11.310 ,1,1,0.,12.0,0.,12.0,0.,12.0,0.,12.0
1979-08-05 21:24:23.310 ,1,0,0.,12.0,0.,12.0,0.,12.0,0.,12.0
1979-08-05 21:24:35.310 ,1,0,0.,12.0,0.,12.0,0.,12.0,0.,12.0
1979-08-05 21:24:47.310 ,2,1,0.,12.0,0.,12.0,0.,12.0,0.,12.0
1979-08-05 21:24:59.310 ,2,1,0.,12.0,0.,12.0,0.,12.0,0.,12.0
1979-08-05 21:25:11.310 ,2,0,0.,12.0,0.,12.0,0.,12.0,0.,12.0
1979-08-05 21:25:23.310 ,2,0,0.,12.0,0.,12.0,0.,12.0,0.,12.0
1979-08-05 21:25:35.310 ,3,1,0.,12.0,0.,12.0,0.,12.0,0.,12.0
1979-08-05 21:25:47.310 ,3,1,0.,12.0,0.,12.0,0.,12.0,0.,12.0
1979-08-05 21:25:59.310 ,3,0,0.,12.0,0.,12.0,0.,12.0,0.,12.0
1979-08-05 21:26:11.310 ,3,0,0.,12.0,0.,12.0,0.,12.0,0.,12.0
1979-08-05 21:26:23.310 ,4,1,0.,12.0,0.,12.0,0.,12.0,0.,12.0
1979-08-05 21:26:35.310 ,4,1,0.,12.0,0.,12.0,0.,12.0,0.,12.0
1979-08-05 21:26:47.310 ,4,0,0.,12.0,0.,12.0,0.,12.0,0.,12.0
1979-08-05 21:26:59.310 ,4,0,0.,12.0,0.,12.0,0.,12.0,0.,12.0
1979-08-05 21:27:11.310 ,5,1,0.,12.0,0.,12.0,0.,12.0,0.,12.0
1979-08-05 21:27:23.310 ,5,1,0.,12.0,0.,12.0,0.,12.0,0.,12.0
1979-08-05 21:27:35.310 ,5,0,0.,12.0,0.,12.0,0.,12.0,0.,12.0
1979-08-05 21:27:47.310 ,5,0,0.,12.0,0.,12.0,0.,12.0,0.,12.0
1979-08-05 21:27:59.310 ,6,1,0.,12.0,0.,12.0,0.,12.0,0.,12.0
1979-08-05 21:28:11.310 ,6,1,0.,12.0,0.,12.0,0.,12.0,0.,12.0
1979-08-05 21:28:23.310 ,0,0,0.,12.0,0.,12.0,0.,12.0,0.,12.0
1979-08-05 21:28:35.310 ,0,0,0.,12.0,0.,12.0,0.,12.0,0.,12.0
1979-08-05 21:28:47.310 ,7,1,0.,12.0,0.,12.0,0.,12.0,0.,12.0
1979-08-05 21:28:59.310 ,7,1,0.,12.0,0.,12.0,0.,12.0,0.,12.0
1979-08-05 21:29:11.310 ,7,0,0.,12.0,0.,12.0,0.,12.0,0.,12.0
1979-08-05 21:29:23.310 ,7,0,0.,12.0,0.,12.0,0.,12.0,0.,12.0
1979-08-05 21:29:35.310 ,7,1,0.,12.0,0.,12.0,0.,12.0,0.,12.0
1979-08-05 21:29:47.310 ,7,1,0.,12.0,0.,12.0,0.,12.0,0.,12.0
1979-08-05 21:29:59.310 ,7,0,0.,12.0,0.,12.0,0.,12.0,0.,12.0
1979-08-05 21:30:11.310 ,7,0,0.,12.0,0.,12.0,0.,12.0,0.,12.0
1979-08-05 21:30:23.310 ,6,1,0.,12.0,0.,12.0,0.,12.0,0.,12.0
1979-08-05 21:30:35.310 ,6,1,0.,12.0,0.,12.0,0.,12.0,0.,12.0
1979-08-05 21:30:47.310 ,6,0,0.,12.0,0.,12.0,0.,12.0,0.,12.0
1979-08-05 21:30:59.310 ,6,0,0.,12.0,0.,12.0,0.,12.0,0.,12.0
1979-08-05 21:31:11.310 ,5,1,0.,12.0,0.,12.0,0.,12.0,0.,12.0
1979-08-05 21:31:23.310 ,5,1,0.,12.0,0.,12.0,0.,12.0,0.,12.0
1979-08-05 21:31:35.310 ,5,0,0.,12.0,0.,12.0,0.,12.0,0.,12.0
1979-08-05 21:31:47.310 ,5,0,0.,12.0,0.,12.0,0.,12.0,0.,12.0
1979-08-05 21:31:59.310 ,4,1,0.,12.0,0.,12.0,0.,12.0,0.,12.0
1979-08-05 21:32:11.310 ,4,1,0.,12.0,0.,12.0,0.,12.0,0.,12.0
1979-08-05 21:32:23.310 ,4,0,0.,12.0,0.,12.0,0.,12.0,0.,12.0
1979-08-05 21:32:35.310 ,4,0,0.,12.0,0.,12.0,0.,12.0,0.,12.0
1979-08-05 21:32:47.310 ,3,1,0.,12.0,0.,12.0,0.,12.0,0.,12.0
1979-08-05 21:32:59.310 ,3,1,0.,12.0,0.,12.0,0.,12.0,0.,12.0
1979-08-05 21:33:11.310 ,3,0,0.,12.0,0.,12.0,0.,12.0,0.,12.0
1979-08-05 21:33:23.310 ,3,0,0.,12.0,0.,12.0,0.,12.0,0.,12.0
1979-08-05 21:33:35.310 ,2,1,0.,12.0,0.,12.0,0.,12.0,0.,12.0
1979-08-05 21:33:47.310 ,2,1,0.,12.0,0.,12.0,0.,12.0,0.,12.0
1979-08-05 21:33:59.310 ,2,0,0.,12.0,0.,12.0,0.,12.0,0.,12.0
1979-08-05 21:34:11.310 ,2,0,0.,12.0,0.,12.0,0.,12.0,0.,12.0
1979-08-05 21:34:23.310 ,1,1,0.,12.0,0.,12.0,0.,12.0,0.,12.0
1979-08-05 21:34:35.310 ,1,1,0.,12.0,0.,12.0,0.,12.0,0.,12.0
1979-08-05 21:34:47.310 ,1,0,0.,12.0,0.,12.0,0.,12.0,0.,12.0
1979-08-05 21:34:59.310 ,1,0,0.,12.0,0.,12.0,0.,12.0,0.,12.0
1979-08-05 21:35:11.310 ,0,0,0.,12.0,0.,12.0,0.,12.0,0.,12.0
1979-08-05 21:35:23.310 ,0,0,0.,12.0,0.,12.0,0.,12.0,0.,12.0
1979-08-05 21:35:35.310 ,0,0,0.,12.0,0.,12.0,0.,12.0,0.,12.0
1979-08-05 21:35:47.310 ,0,0,0.,12.0,0.,12.0,0.,12.0,0.,12.0
1979-08-05 21:35:59.310 ,0,1,0.,12.0,0.,12.0,0.,12.0,0.,12.0
1979-08-05 21:36:11.310 ,0,1,0.,12.0,0.,12.0,0.,12.0,0.,12.0
1979-08-05 21:36:23.310 ,0,0,0.,12.0,0.,12.0,0.,12.0,0.,12.0
1979-08-05 21:36:35.310 ,0,0,0.,12.0,0.,12.0,0.,12.0,0.,12.0
1979-08-05 21:36:47.310 ,1,1,0.,12.0,0.,12.0,0.,12.0,0.,12.0
1979-08-05 21:36:59.310 ,1,1,0.,12.0,0.,12.0,0.,12.0,0.,12.0
1979-08-05 21:37:11.310 ,0,0,0.,12.0,0.,12.0,0.,12.0,0.,12.0
1979-08-05 21:37:23.310 ,0,0,0.,12.0,0.,12.0,0.,12.0,0.,12.0
1979-08-05 21:37:35.310 ,2,1,0.,12.0,0.,12.0,0.,12.0,0.,12.0
1979-08-05 21:37:47.310 ,2,1,0.,12.0,0.,12.0,0.,12.0,0.,12.0
1979-08-05 21:37:59.310 ,2,0,0.,12.0,0.,12.0,0.,12.0,0.,12.0
1979-08-05 21:38:11.310 ,2,0,0.,12.0,0.,12.0,0.,12.0,0.,12.0
1979-08-05 21:38:23.310 ,3,1,0.,12.0,0.,12.0,0.,12.0,0.,12.0
1979-08-05 21:38:35.310 ,3,1,0.,12.0,0.,12.0,0.,12.0,0.,12.0
1979-08-05 21:38:47.310 ,3,0,0.,12.0,0.,12.0,0.,12.0,0.,12.0
1979-08-05 21:38:59.310 ,3,0,0.,12.0,0.,12.0,0.,12.0,0.,12.0
1979-08-05 21:39:11.310 ,4,1,0.,12.0,0.,12.0,0.,12.0,0.,12.0
1979-08-05 21:39:23.310 ,4,1,0.,12.0,0.,12.0,0.,12.0,0.,12.0
1979-08-05 21:39:35.310 ,4,0,0.,12.0,0.,12.0,0.,12.0,0.,12.0
1979-08-05 21:39:47.310 ,4,0,0.,12.0,0.,12.0,0.,12.0,0.,12.0
1979-08-05 21:39:59.310 ,5,1,0.,12.0,0.,12.0,0.,12.0,0.,12.0
1979-08-05 21:40:11.310 ,5,1,0.,12.0,0.,12.0,0.,12.0,0.,12.0
1979-08-05 21:40:23.310 ,5,0,0.,12.0,0.,12.0,0.,12.0,0.,12.0
1979-08-05 21:40:35.310 ,5,0,0.,12.0,0.,12.0,0.,12.0,0.,12.0
1979-08-05 21:40:47.310 ,6,1,0.,12.0,0.,12.0,0.,12.0,0.,12.0
1979-08-05 21:40:59.310 ,6,1,0.,12.0,0.,12.0,0.,12.0,0.,12.0
1979-08-05 21:41:11.310 ,6,0,0.,12.0,0.,12.0,0.,12.0,0.,12.0
1979-08-05 21:41:23.310 ,6,0,0.,12.0,0.,12.0,0.,12.0,0.,12.0
1979-08-05 21:41:35.310 ,7,1,0.,12.0,0.,12.0,0.,12.0,0.,12.0
1979-08-05 21:41:47.310 ,7,1,0.,12.0,0.,12.0,0.,12.0,0.,12.0
1979-08-05 21:41:59.310 ,0,0,0.,12.0,0.,12.0,0.,12.0,0.,12.0
1979-08-05 21:42:11.310 ,0,0,0.,12.0,0.,12.0,0.,12.0,0.,12.0
1979-08-05 21:42:23.310 ,7,1,0.,12.0,0.,12.0,0.,12.0,0.,12.0
1979-08-05 21:42:35.310 ,7,1,0.,12.0,0.,12.0,0.,12.0,0.,12.0
1979-08-05 21:42:47.310 ,7,0,0.,12.0,0.,12.0,0.,12.0,0.,12.0
1979-08-05 21:42:59.310 ,7,0,0.,12.0,0.,12.0,0.,12.0,0.,12.0
1979-08-05 21:43:11.310 ,6,1,0.,12.0,0.,12.0,0.,12.0,0.,12.0
1979-08-05 21:43:23.310 ,6,1,0.,12.0,0.,12.0,0.,12.0,0.,12.0
1979-08-05 21:43:35.310 ,6,0,0.,12.0,0.,12.0,0.,12.0,0.,12.0
1979-08-05 21:43:47.310 ,6,0,0.,12.0,0.,12.0,0.,12.0,0.,12.0
1979-08-05 21:43:59.310 ,5,1,0.,12.0,0.,12.0,0.,12.0,0.,12.0
1979-08-05 21:44:11.310 ,5,1,0.,12.0,0.,12.0,0.,12.0,0.,12.0
1979-08-05 21:44:23.310 ,5,0,,0,,0,,0,,0
1979-08-05 21:44:35.310 ,5,0,0.,12.0,0.,12.0,0.,12.0,0.,12.0
1979-08-05 21:44:47.310 ,4,1,0.,12.0,0.,12.0,0.,12.0,0.,12.0
1979-08-05 21:44:59.310 ,4,1,0.,12.0,0.,12.0,0.,12.0,0.,12.0
1979-08-05 21:45:11.310 ,4,0,0.,12.0,0.,12.0,0.,12.0,0.,12.0
1979-08-05 21:45:23.310 ,4,0,0.,12.0,0.,12.0,0.,12.0,0.,12.0
1979-08-05 21:45:35.310 ,3,1,0.,12.0,0.,12.0,0.,12.0,0.,12.0
1979-08-05 21:45:47.310 ,3,1,0.,12.0,0.,12.0,0.,12.0,0.,12.0
1979-08-05 21:45:59.310 ,3,0,0.,12.0,0.,12.0,0.,12.0,0.,12.0
1979-08-05 21:46:11.310 ,3,0,0.,12.0,0.,12.0,0.,12.0,0.,12.0
1979-08-05 21:46:23.310 ,2,1,0.,12.0,0.,12.0,0.,12.0,0.,12.0
1979-08-05 21:46:35.310 ,2,1,0.,12.0,0.,12.0,0.,12.0,0.,12.0
1979-08-05 21:46:47.310 ,2,0,0.,12.0,0.,12.0,0.,12.0,0.,12.0
1979-08-05 21:46:59.310 ,2,0,0.,12.0,0.,12.0,0.,12.0,0.,12.0
1979-08-05 21:47:11.310 ,1,1,0.,12.0,0.,12.0,0.,12.0,0.,12.0
1979-08-05 21:47:23.310 ,1,1,0.,12.0,0.,12.0,0.,12.0,0.,12.0
1979-08-05 21:47:35.310 ,1,0,0.,12.0,0.,12.0,0.,12.0,0.,12.0
1979-08-05 21:47:47.310 ,1,0,0.,12.0,0.,12.0,0.,12.0,0.,12.0
1979-08-05 21:47:59.310 ,0,1,0.,12.0,0.,12.0,0.,12.0,0.,12.0
1979-08-05 21:48:11.310 ,0,1,0.,12.0,0.,12.0,0.,12.0,0.,12.0
1979-08-05 21:48:23.310 ,0,1,0.,12.0,0.,12.0,0.,12.0,0.,12.0
1979-08-05 21:48:35.310 ,0,1,0.,12.0,0.,12.0,0.,12.0,0.,12.0
1979-08-05 21:48:47.310 ,0,1,0.,12.0,0.,12.0,0.,12.0,0.,12.0
1979-08-05 21:48:59.310 ,0,1,0.,12.0,0.,12.0,0.,12.0,0.,12.0
1979-08-05 21:49:11.310 ,0,0,0.,12.0,0.,12.0,0.,12.0,0.,12.0
1979-08-05 21:49:23.310 ,0,0,0.,12.0,0.,12.0,0.,12.0,0.,12.0
1979-08-05 21:49:35.310 ,1,1,0.,12.0,0.,12.0,0.,12.0,0.,12.0
1979-08-05 21:49:47.310 ,1,1,0.,12.0,0.,12.0,0.,12.0,0.,12.0
1979-08-05 21:49:59.310 ,1,0,0.,12.0,0.,12.0,0.,12.0,0.,12.0
1979-08-05 21:50:11.310 ,1,0,0.,12.0,0.,12.0,0.,12.0,0.,12.0
1979-08-05 21:50:23.310 ,2,1,0.,12.0,0.,12.0,0.,12.0,0.,12.0
1979-08-05 21:50:35.310 ,2,1,0.,12.0,0.,12.0,0.,12.0,0.,12.0
1979-08-05 21:50:47.310 ,2,0,0.,12.0,0.,12.0,0.,12.0,0.,12.0
1979-08-05 21:50:59.310 ,2,0,0.,12.0,0.,12.0,0.,12.0,0.,12.0
1979-08-05 21:51:11.310 ,3,1,0.,12.0,0.,12.0,0.,12.0,0.,12.0
1979-08-05 21:51:23.310 ,3,1,0.,12.0,0.,12.0,0.,12.0,0.,12.0
1979-08-05 21:51:35.310 ,3,0,0.,12.0,0.,12.0,0.,12.0,0.,12.0
1979-08-05 21:51:47.310 ,3,0,0.,12.0,0.,12.0,0.,12.0,0.,12.0
1979-08-05 21:51:59.310 ,4,1,0.,12.0,0.,12.0,0.,12.0,0.,12.0
1979-08-05 21:52:11.310 ,4,1,0.,12.0,0.,12.0,0.,12.0,0.,12.0
1979-08-05 21:52:23.310 ,4,0,0.,12.0,0.,12.0,0.,12.0,0.,12.0
1979-08-05 21:52:35.310 ,4,0,0.,12.0,0.,12.0,0.,12.0,0.,12.0
1979-08-05 21:52:47.310 ,5,1,0.,12.0,0.,12.0,0.,12.0,0.,12.0
1979-08-05 21:52:59.310 ,5,1,0.,12.0,0.,12.0,0.,12.0,0.,12.0
1979-08-05 21:53:11.310 ,5,0,0.,12.0,0.,12.0,0.,12.0,0.,12.0
1979-08-05 21:53:23.310 ,5,0,0.,12.0,0.,12.0,0.,12.0,0.,12.0
1979-08-05 21:53:35.310 ,6,1,0.,12.0,0.,12.0,0.,12.0,0.,12.0
1979-08-05 21:53:47.310 ,6,1,0.,12.0,0.,12.0,0.,12.0,0.,12.0
1979-08-05 21:53:59.310 ,6,0,0.,12.0,0.,12.0,0.,12.0,0.,12.0
1979-08-05 21:54:11.310 ,6,0,0.,12.0,0.,12.0,0.,12.0,0.,12.0
1979-08-05 21:54:23.310 ,7,0,0.,12.0,0.,12.0,0.,12.0,0.,12.0
1979-08-05 21:54:35.310 ,7,0,0.,12.0,0.,12.0,0.,12.0,0.,12.0
1979-08-05 21:54:47.310 ,7,0,0.,12.0,0.,12.0,0.,12.0,0.,12.0
1979-08-05 21:54:59.310 ,7,0,0.,12.0,0.,12.0,0.,12.0,0.,12.0
1979-08-05 21:55:11.310 ,0,0,0.,12.0,0.,12.0,0.,12.0,0.,12.0
1979-08-05 21:55:23.310 ,0,0,0.,12.0,0.,12.0,0.,12.0,0.,12.0
1979-08-05 21:55:35.310 ,0,0,0.,12.0,0.,12.0,0.,12.0,0.,12.0
1979-08-05 21:55:47.310 ,0,0,0.,12.0,0.,12.0,0.,12.0,0.,12.0
1979-08-05 21:55:59.310 ,3,1,0.,12.0,0.,12.0,0.,12.0,0.,12.0
1979-08-05 21:56:11.310 ,3,1,0.,12.0,0.,12.0,0.,12.0,0.,12.0
1979-08-05 21:56:23.310 ,7,1,0.,12.0,0.,12.0,0.,12.0,0.,12.0
1979-08-05 21:56:35.310 ,7,1,0.,12.0,0.,12.0,0.,12.0,0.,12.0
1979-08-05 21:56:47.310 ,4,1,0.,12.0,0.,12.0,0.,12.0,0.,12.0
1979-08-05 21:56:59.310 ,4,1,0.,12.0,1.,12.0,0.,12.0,0.,12.0
1979-08-05 21:57:11.310 ,0,1,0.,12.0,0.,12.0,0.,12.0,0.,12.0
1979-08-05 21:57:23.310 ,0,1,0.,12.0,0.,12.0,0.,12.0,0.,12.0
1979-08-05 21:57:35.310 ,3,1,0.,12.0,0.,12.0,0.,12.0,0.,12.0
1979-08-05 21:57:47.310 ,3,1,0.,12.0,0.,12.0,0.,12.0,0.,12.0
1979-08-05 21:57:59.310 ,7,1,0.,12.0,0.,12.0,0.,12.0,0.,12.0
1979-08-05 21:58:11.310 ,7,1,0.,12.0,0.,12.0,0.,12.0,0.,12.0
1979-08-05 21:58:23.310 ,4,1,0.,12.0,0.,12.0,0.,12.0,0.,12.0
1979-08-05 21:58:35.310 ,4,1,0.,12.0,0.,12.0,0.,12.0,0.,12.0
1979-08-05 21:58:47.310 ,0,1,0.,12.0,0.,12.0,0.,12.0,0.,12.0
1979-08-05 21:58:59.310 ,0,1,0.,12.0,0.,12.0,0.,12.0,0.,12.0
1979-08-05 21:59:11.310 ,3,1,0.,12.0,0.,12.0,0.,12.0,0.,12.0
1979-08-05 21:59:23.310 ,3,1,0.,12.0,0.,12.0,0.,12.0,0.,12.0
1979-08-05 21:59:35.310 ,7,1,0.,12.0,0.,12.0,0.,12.0,0.,12.0
1979-08-05 21:59:47.310 ,7,1,0.,12.0,0.,12.0,0.,12.0,0.,12.0
1979-08-05 21:59:59.310 ,4,1,0.,12.0,0.,12.0,0.,12.0,0.,12.0
1979-08-05 22:00:11.310 ,4,1,0.,12.0,0.,12.0,0.,12.0,0.,12.0
1979-08-05 22:00:23.310 ,0,1,0.,12.0,0.,12.0,0.,12.0,0.,12.0
1979-08-05 22:00:35.310 ,0,1,0.,12.0,0.,12.0,0.,12.0,0.,12.0
1979-08-05 22:00:47.310 ,3,1,0.,12.0,0.,12.0,0.,12.0,0.,12.0
1979-08-05 22:00:59.310 ,3,1,0.,12.0,0.,12.0,0.,12.0,0.,12.0
1979-08-05 22:01:11.310 ,7,1,0.,12.0,0.,12.0,0.,12.0,0.,12.0
1979-08-05 22:01:23.310 ,7,1,0.,12.0,0.,12.0,0.,12.0,0.,12.0
1979-08-05 22:01:35.310 ,4,1,0.,12.0,0.,12.0,0.,12.0,0.,12.0
1979-08-05 22:01:47.310 ,4,1,0.,12.0,0.,12.0,0.,12.0,0.,12.0
1979-08-05 22:01:59.310 ,0,1,0.,12.0,0.,12.0,0.,12.0,0.,12.0
1979-08-05 22:02:11.310 ,0,1,0.,12.0,0.,12.0,0.,12.0,0.,12.0
1979-08-05 22:02:23.310 ,3,1,0.,12.0,0.,12.0,0.,12.0,0.,12.0
1979-08-05 22:02:35.310 ,3,1,0.,12.0,0.,12.0,0.,12.0,0.,12.0
1979-08-05 22:02:47.310 ,7,1,0.,12.0,0.,12.0,0.,12.0,0.,12.0
1979-08-05 22:02:59.310 ,7,1,0.,12.0,0.,12.0,0.,12.0,0.,12.0
1979-08-05 22:03:11.310 ,4,1,0.,12.0,0.,12.0,0.,12.0,0.,12.0
1979-08-05 22:03:23.310 ,4,1,0.,12.0,0.,12.0,0.,12.0,0.,12.0
1979-08-05 22:03:35.310 ,0,1,0.,12.0,0.,12.0,0.,12.0,0.,12.0
1979-08-05 22:03:47.310 ,0,1,0.,12.0,0.,12.0,0.,12.0,0.,12.0
1979-08-05 22:03:59.310 ,3,1,0.,12.0,0.,12.0,0.,12.0,0.,12.0
1979-08-05 22:04:11.310 ,3,1,0.,12.0,0.,12.0,0.,12.0,0.,12.0
1979-08-05 22:04:23.310 ,7,1,0.,12.0,0.,12.0,0.,12.0,0.,12.0
1979-08-05 22:04:35.310 ,7,1,0.,12.0,0.,12.0,0.,12.0,0.,12.0
1979-08-05 22:04:47.310 ,4,1,0.,12.0,0.,12.0,0.,12.0,0.,12.0
1979-08-05 22:04:59.310 ,4,1,0.,12.0,0.,12.0,0.,12.0,0.,12.0
1979-08-05 22:05:11.310 ,0,1,0.,12.0,0.,12.0,0.,12.0,0.,12.0
1979-08-05 22:05:23.310 ,0,1,0.,12.0,0.,12.0,0.,12.0,0.,12.0
1979-08-05 22:05:35.310 ,0,0,0.,12.0,0.,12.0,0.,12.0,0.,12.0
1979-08-05 22:05:47.310 ,0,0,0.,12.0,0.,12.0,0.,12.0,0.,12.0
1979-08-05 22:05:59.310 ,0,0,0.,12.0,0.,12.0,0.,12.0,0.,12.0
1979-08-05 22:06:11.310 ,0,0,0.,12.0,0.,12.0,0.,12.0,0.,12.0
1979-08-05 22:06:23.310 ,5,1,0.,12.0,0.,12.0,0.,12.0,0.,12.0
1979-08-05 22:06:35.310 ,5,1,0.,12.0,0.,12.0,0.,12.0,0.,12.0
1979-08-05 22:06:47.310 ,5,0,0.,12.0,0.,12.0,0.,12.0,0.,12.0
1979-08-05 22:06:59.310 ,5,0,0.,12.0,0.,12.0,0.,12.0,0.,12.0
1979-08-05 22:07:11.310 ,4,1,0.,12.0,0.,12.0,0.,12.0,0.,12.0
1979-08-05 22:07:23.310 ,4,1,0.,12.0,0.,12.0,0.,12.0,0.,12.0
1979-08-05 22:07:35.310 ,4,0,0.,12.0,0.,12.0,0.,12.0,0.,12.0
1979-08-05 22:07:47.310 ,4,0,0.,12.0,0.,12.0,0.,12.0,0.,12.0
1979-08-05 22:07:59.310 ,3,1,0.,12.0,0.,12.0,0.,12.0,0.,12.0
1979-08-05 22:08:11.310 ,3,1,0.,12.0,0.,12.0,0.,12.0,0.,12.0
1979-08-05 22:08:23.310 ,3,0,0.,12.0,0.,12.0,0.,12.0,0.,12.0
1979-08-05 22:08:35.310 ,3,0,0.,12.0,0.,12.0,0.,12.0,0.,12.0
1979-08-05 22:08:47.310 ,2,1,0.,12.0,0.,12.0,0.,12.0,0.,12.0
1979-08-05 22:08:59.310 ,2,1,0.,12.0,0.,12.0,0.,12.0,0.,12.0
1979-08-05 22:09:11.310 ,2,0,0.,12.0,0.,12.0,0.,12.0,0.,12.0
1979-08-05 22:09:23.310 ,2,0,0.,12.0,0.,12.0,0.,12.0,0.,12.0
1979-08-05 22:09:35.310 ,1,1,0.,12.0,0.,12.0,0.,12.0,0.,12.0
1979-08-05 22:09:47.310 ,1,1,0.,12.0,0.,12.0,0.,12.0,0.,12.0
1979-08-05 22:09:59.310 ,1,0,0.,12.0,0.,12.0,0.,12.0,0.,12.0
1979-08-05 22:10:11.310 ,1,0,0.,12.0,0.,12.0,0.,12.0,0.,12.0
1979-08-05 22:10:23.310 ,0,1,0.,12.0,0.,12.0,0.,12.0,0.,12.0
1979-08-05 22:10:35.310 ,0,1,0.,12.0,0.,12.0,0.,12.0,0.,12.0
1979-08-05 22:10:47.310 ,0,0,0.,12.0,0.,12.0,0.,12.0,0.,12.0
1979-08-05 22:10:59.310 ,0,0,0.,12.0,0.,12.0,0.,12.0,0.,12.0
1979-08-05 22:11:11.310 ,0,1,0.,12.0,0.,12.0,0.,12.0,0.,12.0
1979-08-05 22:11:23.310 ,0,1,0.,12.0,0.,12.0,0.,12.0,0.,12.0
1979-08-05 22:11:35.310 ,0,0,0.,12.0,0.,12.0,0.,12.0,0.,12.0
1979-08-05 22:11:47.310 ,0,0,0.,12.0,0.,12.0,0.,12.0,0.,12.0
1979-08-05 22:11:59.310 ,1,1,0.,12.0,0.,12.0,0.,12.0,0.,12.0
1979-08-05 22:12:11.310 ,1,1,0.,12.0,0.,12.0,0.,12.0,0.,12.0
1979-08-05 22:12:23.310 ,1,0,0.,12.0,0.,12.0,0.,12.0,0.,12.0
1979-08-05 22:12:35.310 ,1,0,0.,12.0,0.,12.0,0.,12.0,0.,12.0
1979-08-05 22:12:47.310 ,2,1,0.,12.0,0.,12.0,0.,12.0,0.,12.0
1979-08-05 22:12:59.310 ,2,1,0.,12.0,0.,12.0,0.,12.0,0.,12.0
1979-08-05 22:13:11.310 ,2,0,0.,12.0,0.,12.0,0.,12.0,0.,12.0
1979-08-05 22:13:23.310 ,2,0,0.,12.0,0.,12.0,0.,12.0,0.,12.0
1979-08-05 22:13:35.310 ,3,1,0.,12.0,0.,12.0,0.,12.0,0.,12.0
1979-08-05 22:13:47.310 ,3,1,0.,12.0,0.,12.0,0.,12.0,0.,12.0
1979-08-05 22:13:59.310 ,3,0,0.,12.0,0.,12.0,0.,12.0,0.,12.0
1979-08-05 22:14:11.310 ,3,0,0.,12.0,0.,12.0,0.,12.0,0.,12.0
1979-08-05 22:14:23.310 ,4,1,0.,12.0,0.,12.0,0.,12.0,0.,12.0
1979-08-05 22:14:35.310 ,4,1,0.,12.0,0.,12.0,0.,12.0,0.,12.0
1979-08-05 22:14:47.310 ,4,0,0.,12.0,0.,12.0,0.,12.0,0.,12.0
1979-08-05 22:14:59.310 ,4,0,0.,12.0,0.,12.0,0.,12.0,0.,12.0
1979-08-05 22:15:11.310 ,5,1,0.,12.0,0.,12.0,0.,12.0,0.,12.0
1979-08-05 22:15:23.310 ,5,1,0.,12.0,0.,12.0,0.,12.0,0.,12.0
1979-08-05 22:15:35.310 ,5,0,0.,12.0,0.,12.0,0.,12.0,0.,12.0
1979-08-05 22:15:47.310 ,5,0,0.,12.0,0.,12.0,0.,12.0,0.,12.0
1979-08-05 22:15:59.310 ,6,1,0.,12.0,0.,12.0,0.,12.0,0.,12.0
1979-08-05 22:16:11.310 ,6,1,0.,12.0,0.,12.0,0.,12.0,0.,12.0
1979-08-05 22:16:23.310 ,6,0,0.,12.0,0.,12.0,0.,12.0,0.,12.0
1979-08-05 22:16:35.310 ,6,0,0.,12.0,0.,12.0,0.,12.0,0.,12.0
1979-08-05 22:16:47.310 ,7,1,0.,12.0,0.,12.0,0.,12.0,0.,12.0
1979-08-05 22:16:59.310 ,7,1,0.,12.0,0.,12.0,0.,12.0,0.,12.0
1979-08-05 22:17:11.310 ,7,0,0.,12.0,0.,12.0,0.,12.0,0.,12.0
1979-08-05 22:17:23.310 ,7,0,0.,12.0,0.,12.0,0.,12.0,0.,12.0
1979-08-05 22:17:35.310 ,7,1,0.,12.0,0.,12.0,0.,12.0,0.,12.0